Hourly Data Report for July 31, 2021

SARNIA
ONTARIO
Current Station Operator: NAVCAN

42°59'58.000" N
82°18'32.000" W
181.40 m
6127510
71704
YZR

Download Data

Hourly Data (July 2021)
Hourly Data Report for July 31, 2021
TIME
LST
Temp Definition
°C
Dew Point Definition
°C
Rel Hum Definition
%
Precip. Amount Definition
mm

Wind Dir Definition
10's deg

Wind Spd Definition
km/h
Visibility Definition
km
Stn Press Definition
kPa
Hmdx Definition


Wind Chill Definition


Weather Definition


00:00 11.9 11.1 95 0.0   0 16.1 99.71     LegendNANA
01:00 12.1 10.9 92 0.0 21 5 16.1 99.67     LegendNANA
02:00 11.6 10.5 93 0.0 23 4 16.1 99.65     LegendNANA
03:00 11.3 10.4 94 0.0 19 4 16.1 99.66     LegendNANA
04:00 11.5 10.6 94 0.0 19 5 16.1 99.62     LegendNANA
05:00 11.7 10.8 94 0.0 20 5 16.1 99.61     LegendNANA
06:00 11.1 10.4 95 0.0 15 4 16.1 99.61     LegendNANA
07:00 13.7 11.5 87 0.0 19 5 16.1 99.57     LegendNANA
08:00 16.1 12.8 81 0.0 20 9 16.1 99.57     LegendNANA
09:00 18.3 13.0 71 0.0 20 17 16.1 99.52     LegendNANA
10:00 20.4 14.9 70 0.0 20 15 16.1 99.45     LegendNANA
11:00 21.5 15.0 66 0.0 22 15 16.1 99.41 25   LegendNANA
12:00 23.0 15.0 60 0.0 21 17 16.1 99.40 27   LegendNANA
13:00 23.4 15.0 59 0.0 23 15 16.1 99.34 27   LegendNANA
14:00 23.0 15.7 63 0.0 22 18 16.1 99.25 27   LegendNANA
15:00 24.3 15.7 58 0.0 21 24 16.1 99.14 29   LegendNANA
16:00 24.5 15.7 57 0.0 21 17 16.1 99.11 29   LegendNANA
17:00 24.5 15.2 56 0.0 22 17 16.1 99.06 29   LegendNANA
18:00 25.0 14.9 53 0.0 28 15 16.1 99.03 29   LegendNANA
19:00 23.7 14.4 56 0.0 31 9 16.1 99.05 27   LegendNANA
20:00 22.6 12.9 54 0.0 27 11 16.1 99.03 25   LegendNANA
21:00 21.9 12.9 56 0.0 27 11 16.1 99.03 25   LegendNANA
22:00 21.5 12.8 57 0.0 27 9 16.1 99.04     LegendNANA
23:00 19.8 15.3 75 0.0 30 8 16.1 99.01     LegendNANA

Notes on Data Quality.

Legend

  • E = Estimated
  • M = Missing
  • NA = Not Available*
  • [empty] = Indicates an unobserved value
Date modified: